Location: Pinhead Observatory
(34.4473°N, 118.1985°W)
Time: 02:53:04
(UTC-08:00)

CZ-4C R/B - Visible Passes

Search period start: 17 January 2017 00:00
Search period end: 27 January 2017 00:00
Orbit: 726 x 1276 km, 63.4° (Epoch: 17 January)

Date Brightness Start Highest point End Pass type
(mag) Time Alt. Az. Time Alt. Az. Time Alt. Az.
23 Jan 4.8 19:52:48 10° N 19:53:52 14° N 19:53:52 14° N visible
24 Jan 4.7 18:41:09 10° NNE 18:41:36 10° NNE 18:41:36 10° NNE visible
24 Jan 4.8 20:25:34 10° NNW 20:26:49 16° NNW 20:26:49 16° NNW visible
25 Jan 4.4 19:11:42 10° N 19:14:37 18° NNE 19:14:37 18° NNE visible
25 Jan 5.0 20:58:50 10° NNW 20:59:51 15° NNW 20:59:51 15° NNW visible
26 Jan 4.1 19:44:18 10° NNW 19:47:45 26° N 19:47:45 26° N visible
26 Jan 5.3 21:32:39 10° NW 21:32:59 11° NW 21:32:59 11° NW visible
